Upstream stations:
Downstream station:
SHEF ID: AMAT2 Canadian Rv nr Amarillo, TX
STATION TYPE:
Regulating: Stage = 13.00, Flow = 87096
STAGE RIV-FLOW WTR-TEMP CONDUCT BAT-LOAD
ft cfs F umho/cm volt
Ccp-Rev Ccp-Rev Ccp-Rev Ccp-Rev Ccp-Rev
(US/Central)
06/07 00:00 0.63 0 74.57 4 12.73
06/07 01:00 0.64 0 73.85 4 12.73
06/07 02:00 0.64 0 73.20 4 12.65
06/07 03:00 0.64 0 72.61 4 12.65
06/07 04:00 0.64 0 72.12 4 12.65
06/07 05:00 0.63 0 71.58 4 12.65
06/07 06:00 0.65 0 70.99 4 12.65
06/07 07:00 0.64 0 70.52 4 12.65
06/07 08:00 0.61 0 70.12 4 12.65
06/07 09:00 0.60 0 69.87 4 12.65
06/07 10:00 0.62 0 69.76 4 12.81
06/07 11:00 0.61 0 69.80 4 12.65
06/07 12:00 0.64 0 70.20 4 12.89
06/07 13:00 0.65 0 70.48 4 13.05
06/07 14:00 0.65 0 71.40 5 13.05
06/07 15:00 0.64 0 72.68 5 13.05
06/07 16:00 0.63 0 73.47 5 12.97
06/07 17:00 0.63 0 74.17 5 12.89
06/07 18:00 0.63 0 74.84 5 12.81
06/07 19:00 0.60 0 74.98 5 12.81
06/07 20:00 0.62 0 75.22 5 12.73
06/07 21:00 0.62 0 74.95 4 12.73
06/07 22:00 0.62 0 74.28 4 12.73
06/07 23:00 ---- ---- ---- ---- ----